Home > Time Zones > World Clock > Weather > U.S.A. > Adak > Past weeks

Flag for U.S.A. Weather past 2 weeks in Adak, Alaska, U.S.A.

Now
52 °F

Low clouds.


Feels Like: 46 °F
Forecast: 49 / 57 °F
Wind: 18 mph from South

Location: Adak

Current Time: Aug 20, 2014 at 6:16:29 AM

Latest Report: Aug 20, 2014 at 5:36 AM


Visibility: 5 mi

Pressure: 29.87 "Hg

Humidity: 82%

Dew point: 46 °F

Location of AdakLocation

Historic Weather in Adak — Graph

°F

Adak temperature yesterday

Maximum temperature yesterday: 55 °F (at 10:16 AM)
Minimum temperature yesterday: 52 °F (at 12:16 AM)
Average temperature yesterday: 54 °F

Past Weeks' High & Low Weather Summary

 TemperatureHumidityPressure
High63 °F (Aug 6, 3:56 AM)94% (Aug 14, 1:16 PM)30.07 "Hg (Aug 14, 1:16 PM)
Low43 °F (Aug 17, 3:36 AM)59% (Aug 9, 10:56 AM)29.03 "Hg (Aug 11, 7:36 AM)
Average53 °F78%29.72 "Hg
* Reported Aug 5 4:16 AM — Aug 20 4:56 AM, Adak, Weather by CustomWeather, © 2014

Note: Actual official high and low records may vary slightly from our data, if they occured in-between our weather recording intervals... More about our weather records

Advertising

Adak weather history for previous 24 hours

 ConditionsComfort  
Time TempWeatherWind HumidityBarometerVisibility
4:56 AM
Aug 20
52 °FMostly cloudy.21 mph82%29.88 "Hg5 mi
4:36 AM52 °FPartly cloudy.22 mph82%29.88 "Hg7 mi
4:16 AM52 °FOvercast.22 mph82%29.89 "Hg6 mi
3:56 AM52 °FOvercast.21 mph82%29.89 "Hg5 mi
3:36 AM52 °FMostly cloudy.22 mph82%29.90 "Hg5 mi
2:56 AM52 °FOvercast.22 mph82%29.91 "Hg3 mi
2:36 AM52 °FOvercast.21 mph77%29.91 "Hg5 mi
2:16 AM52 °FOvercast.18 mph77%29.92 "Hg5 mi
1:56 AM52 °FOvercast.18 mph77%29.92 "Hg8 mi
1:36 AM54 °FMostly cloudy.21 mph72%29.93 "Hg10 mi
1:16 AM54 °FOvercast.14 mph72%29.94 "Hg10 mi
12:56 AM54 °FPartly cloudy.18 mph72%29.94 "Hg10 mi
12:36 AM54 °FOvercast.23 mph77%29.94 "Hg10 mi
12:16 AM54 °FMostly cloudy.17 mph72%29.95 "Hg10 mi
11:56 PM
Aug 19
54 °FOvercast.13 mph77%29.95 "Hg10 mi
11:36 PM54 °FOvercast.17 mph77%29.95 "Hg10 mi
10:56 PM54 °FOvercast.18 mph77%29.95 "Hg10 mi
10:36 PM54 °FOvercast.12 mph77%29.95 "Hg10 mi
10:16 PM54 °FOvercast.9 mph77%29.95 "Hg10 mi
9:56 PM54 °FOvercast.13 mph77%29.95 "Hg10 mi
9:36 PM54 °FMostly cloudy.7 mph77%29.94 "Hg10 mi
8:56 PM54 °FMore clouds than sun.16 mph77%29.95 "Hg10 mi
8:36 PM54 °FMostly cloudy.20 mph77%29.95 "Hg10 mi
8:16 PM54 °FCloudy.20 mph77%29.95 "Hg10 mi
7:56 PM54 °FOvercast.18 mph72%29.96 "Hg10 mi
7:36 PM54 °FOvercast.20 mph77%29.95 "Hg10 mi
7:16 PM54 °FBroken clouds.18 mph77%29.96 "Hg10 mi
6:56 PM54 °FMostly cloudy.15 mph77%29.96 "Hg10 mi
6:36 PM54 °FMostly cloudy.14 mph77%29.96 "Hg10 mi
6:16 PM55 °FMostly cloudy.16 mph72%29.96 "Hg10 mi
5:56 PM55 °FMore clouds than sun.16 mph72%29.96 "Hg10 mi
5:36 PM54 °FMostly cloudy.16 mph77%29.97 "Hg10 mi
5:16 PM54 °FOvercast.14 mph77%29.98 "Hg10 mi
4:56 PM55 °FMostly cloudy.13 mph72%29.98 "Hg10 mi
4:36 PM55 °FOvercast.16 mph67%29.98 "Hg10 mi
4:16 PM55 °FOvercast.16 mph67%29.99 "Hg10 mi
3:56 PM55 °FMostly cloudy.18 mph67%29.99 "Hg10 mi
3:36 PM55 °FCloudy.18 mph67%30.00 "Hg10 mi
3:16 PM55 °FMostly cloudy.18 mph67%30.00 "Hg10 mi
2:56 PM55 °FMostly cloudy.13 mph67%30.00 "Hg10 mi
2:36 PM55 °FBroken clouds.12 mph67%30.01 "Hg10 mi
2:16 PM55 °FMore clouds than sun.16 mph67%30.01 "Hg10 mi
1:56 PM55 °FMore clouds than sun.16 mph72%30.00 "Hg10 mi
1:36 PM55 °FCloudy.14 mph67%30.01 "Hg10 mi
1:16 PM55 °FMostly cloudy.12 mph67%30.01 "Hg10 mi
12:56 PM55 °FPartly sunny.14 mph67%30.02 "Hg10 mi
12:36 PM55 °FBroken clouds.14 mph67%30.01 "Hg10 mi
11:56 AM55 °FOvercast.10 mph72%30.01 "Hg10 mi
11:36 AM55 °FMore clouds than sun.14 mph72%30.02 "Hg10 mi
11:16 AM55 °FMostly cloudy.10 mph72%30.02 "Hg10 mi
10:56 AM55 °FMore clouds than sun.15 mph72%30.02 "Hg10 mi
10:36 AM55 °FMore clouds than sun.10 mph72%30.02 "Hg10 mi
10:16 AM55 °FCloudy.12 mph72%30.01 "Hg10 mi
9:56 AM54 °FOvercast.10 mph77%30.01 "Hg10 mi
9:36 AM54 °FBroken clouds.9 mph72%30.01 "Hg10 mi
8:56 AM52 °FPassing clouds.7 mph77%30.01 "Hg10 mi
8:36 AM52 °FPassing clouds.7 mph77%30.01 "Hg10 mi
8:16 AM52 °FPassing clouds.7 mph77%30.01 "Hg10 mi
7:56 AM52 °FPassing clouds.8 mph77%30.01 "Hg10 mi
7:36 AM52 °FPassing clouds.9 mph77%30.01 "Hg10 mi
7:16 AM52 °FOvercast.6 mph77%30.01 "Hg10 mi
6:56 AM54 °FOvercast.6 mph77%30.01 "Hg10 mi
6:36 AM52 °FMostly cloudy.5 mph77%30.02 "Hg10 mi
6:16 AM52 °FOvercast.3 mph77%30.02 "Hg10 mi
Weather by CustomWeather, © 2014

See weather overviewHow to use our weather pages